Weather observations for the past three days for
Jackson, Jackson International Airport
Imperial (Metric)
Date Time (cdt) Wind (mph) Vis. (mi.) Weather Sky Cond. Temperature (ºF) Relative Humidity Wind Chill (°F) Heat Index (°F) Pressure Precipitation (in)
Air Dwpt 6 hour altimeter (in) sea level (mb) 1 hr 3 hr 6 hr
Max. Min.
20 12:54 N 7 10.00 Mostly Cloudy BKN030 88 73 88 75.9 61% 96 30.04 1016.6
20 11:54 N 7 10.00 Mostly Cloudy SCT029 BKN036 84.9 72 65% 91 30.05 1017.0
20 10:54 N 3 10.00 Mostly Cloudy SCT017 BKN030 82.9 73 72% 89 30.06 1017.4
20 09:54 W 5 10.00 Overcast BKN014 BKN023 OVC029 80.1 75 85% 85 30.06 1017.3
20 08:54 W 5 10.00 Overcast BKN007 OVC033 78.1 75 90% 81 30.05 1016.9
20 07:54 S 3 10.00 Overcast BKN006 BKN010 OVC022 75.9 73.9 94% 75 30.04 1016.7
20 06:54 Calm 10.00 Overcast BKN006 OVC010 75.9 73.9 75.9 73.9 94% 75 30.02 1016.0 0.01
20 05:54 SE 6 10.00 Overcast OVC005 75 73 94% 73 30 1015.5
20 04:54 SE 3 10.00 Overcast OVC006 75 73 94% 73 30 1015.2
20 03:54 SE 6 10.00 Overcast FEW016 BKN022 OVC060 73.9 73 97% 29.99 1015.0 0.01 0.01
20 02:54 S 6 10.00 Mostly Cloudy FEW006 SCT050 BKN075 73.9 72 94% 29.99 1015.1
20 01:54 SE 7 10.00 A Few Clouds FEW050 73.9 72 94% 30 1015.4
20 00:54 Calm 10.00 Mostly Cloudy BKN090 75 72 82 75 90% 74 30.02 1016.1
19 23:54 S 7 10.00 Mostly Cloudy FEW023 BKN085 75.9 73 91% 76 30.02 1016.2
19 22:54 Calm 10.00 Partly Cloudy FEW015 SCT085 SCT200 75.9 75 97% 75 30.02 1016.0
19 21:54 Calm 10.00 Mostly Cloudy FEW005 BKN200 77 75 94% 78 30.01 1015.8
19 20:54 N 6 10.00 Light Rain FEW007 BKN032 OVC120 77 75 94% 78 30 1015.2
19 19:54 N 8 10.00 Light Rain FEW027 SCT075 BKN140 79 75.9 90% 83 29.99 1014.9
19 18:54 S 8 10.00 Mostly Cloudy FEW030 SCT085 BKN120 82 72 87.1 81 72% 87 29.96 1014.1 0.11
19 17:54 S 12 G 22 10.00 Mostly Cloudy FEW035 SCT085 BKN250 82.9 71.1 67% 88 29.95 1013.6
19 16:54 SE 10 10.00 Mostly Cloudy BKN030TCU BKN044 84.9 75 72% 93 29.96 1014.0
19 15:54 Vrbl 3 10.00 Mostly Cloudy FEW029 BKN110 84.9 73.9 70% 92 29.97 1014.3 0.04 0.11
19 14:54 NW 5 5.00 Light Rain FEW029 SCT037 BKN060 81 73.9 79% 86 29.99 1015.1 0.07
19 13:54 SW 5 10.00 Mostly Cloudy SCT028 BKN036 BKN045 84.9 72 65% 91 30.01 1015.7
19 12:54 S 3 10.00 Mostly Cloudy SCT050 SCT100 BKN180 84.9 71.1 86 73.9 63% 90 30.02 1016.2
19 11:54 S 7 10.00 Mostly Cloudy FEW070 BKN180 84.9 71.1 63% 90 30.03 1016.5
19 10:54 SE 6 10.00 Mostly Cloudy SCT070 BKN180 82 72 72% 87 30.04 1016.8
19 09:54 Calm 10.00 A Few Clouds FEW009 FEW090 80.1 73 79% 84 30.06 1017.3
19 08:54 Calm 10.00 Mostly Cloudy BKN005 75.9 73 91% 76 30.04 1017.0
19 07:54 SE 3 9.00 Overcast OVC002 75 73 94% 73 30.03 1016.5
19 06:54 S 3 9.00 Overcast OVC003 73.9 73 75.9 73.9 97% 30.03 1016.4
19 05:54 Calm 10.00 Partly Cloudy FEW003 SCT110 73.9 72 94% 30.01 1015.9
19 04:54 SE 7 10.00 Mostly Cloudy BKN028 73.9 73 97% 30.01 1015.9
19 03:54 SE 5 10.00 Fair CLR 75 73 94% 73 30.01 1015.8
19 02:54 Calm 10.00 Fair CLR 75.9 73.9 94% 75 30.02 1015.9
19 01:54 Calm 10.00 Mostly Cloudy BKN014 BKN055 BKN070 75.9 73.9 94% 75 30.02 1016.1
19 00:54 Calm 10.00 Light Rain FEW012 SCT018 BKN100 75 73.9 77 75 96% 73 30.03 1016.2 0.01
18 23:54 Calm 10.00 A Few Clouds FEW013 75 73 94% 73 30.02 1016.1
18 22:54 Calm 10.00 Overcast FEW030 BKN180 OVC200 75 73 94% 73 30.01 1015.8
18 21:54 S 5 10.00 Light Rain FEW010 BKN100 OVC130 75 73.9 96% 73 30.01 1015.9 0.01 0.01
18 20:54 S 5 10.00 Overcast OVC160 75.9 73 91% 76 30.02 1016.1
18 19:54 E 6 10.00 Mostly Cloudy SCT060 BKN140 BKN170 75.9 73 91% 76 30 1015.3
18 18:54 E 9 10.00 Mostly Cloudy SCT045 BKN070 BKN160 77 73 93.9 75 88% 78 30 1015.5 0.38
18 16:54 SE 23 G 37 6.00 Thunderstorm Light Rain Fog/Mist and Breezy BKN039CB OVC070 75.9 72 88% 76 29.98 1014.8 0.16
18 15:54 E 6 10.00 Mostly Cloudy FEW055TCU SCT075 BKN120 89.1 72 57% 96 29.98 1014.6
18 14:54 SE 7 10.00 Mostly Cloudy FEW039TCU SCT055 BKN090 90 75 62% 100 29.99 1015.0
18 13:54 Vrbl 3 10.00 Mostly Cloudy SCT037TCU BKN048 BKN100 93 71.1 49% 100 30 1015.4
18 12:54 W 5 10.00 Mostly Cloudy SCT035 BKN095 91 71.1 93 73.9 52% 98 30.03 1016.5
18 11:54 NW 9 10.00 Mostly Cloudy BKN031 90 72 56% 97 30.04 1016.8
18 10:54 W 7 10.00 Partly Cloudy SCT026 88 73 61% 96 30.04 1016.8
18 09:54 S 8 10.00 Fair CLR 84 73.9 72% 91 30.05 1017.2
18 08:54 SW 6 10.00 A Few Clouds FEW120 80.1 72 76% 84 30.06 1017.4
18 07:54 S 5 10.00 A Few Clouds FEW120 77 71.1 82% 79 30.04 1016.6
18 06:54 SE 7 10.00 A Few Clouds FEW120 73.9 71.1 77 73 91% 30.02 1016.1
18 05:54 E 3 10.00 Fair CLR 73 70 90% 30 1015.4
18 04:54 Calm 10.00 Mostly Cloudy SCT037 BKN050 75.9 71.1 85% 76 30 1015.5
18 03:54 S 5 10.00 Overcast FEW017 BKN026 OVC070 75 71.1 88% 75 30.01 1015.8
18 02:54 SE 3 10.00 Mostly Cloudy BKN022 BKN065 75 72 90% 74 30.02 1016.1
18 01:54 S 5 10.00 Fair CLR 75.9 71.1 85% 76 30.01 1015.8
18 00:54 S 5 10.00 Fair CLR 77 71.1 84.9 77 82% 79 30.03 1016.2
17 23:54 S 6 10.00 Fair CLR 78.1 73.9 87% 81 30.03 1016.4
17 22:54 S 6 10.00 A Few Clouds FEW050 79 75 88% 83 30.02 1015.9
17 21:54 S 7 10.00 A Few Clouds FEW050 80.1 75 85% 85 30.02 1015.9
17 20:54 S 6 10.00 A Few Clouds FEW055 81 75.9 85% 87 30.01 1015.6
17 19:54 S 6 10.00 Mostly Cloudy FEW055 BKN250 84 75.9 77% 93 29.97 1014.4
17 18:54 S 12 10.00 Mostly Cloudy FEW060 FEW120 BKN250 84.9 75 97 84.9 72% 93 29.97 1014.2
17 17:54 S 10 10.00 Mostly Cloudy FEW065 BKN250 88 73.9 63% 97 29.95 1013.6
17 16:54 SE 16 10.00 Mostly Cloudy FEW060 SCT110 BKN220 88 73.9 63% 97 29.97 1014.3
17 15:54 Vrbl 5 10.00 Mostly Cloudy FEW055 SCT110 BKN220 95 70 44% 101 29.98 1014.4
17 14:54 SW 3 10.00 Mostly Cloudy FEW055 BKN250 95 70 44% 101 29.98 1014.7
17 13:54 N 3 10.00 Partly Cloudy FEW045 SCT230 96.1 70 43% 103 29.99 1015.0
Date Time (cdt) Wind (mph) Vis. (mi.) Weather Sky Cond. Air Dwpt Max. Min. Relative Humidity Wind Chill (°F) Heat Index (°F) altimeter (in) sea level (mb) 1 hr 3 hr 6 hr
6 hour
Temperature (ºF) Pressure Precipitation (in)